Location: Unspecified
(49.2170°N, 0.0000°E)
Time: 13:25:17
(UTC+00:00)

Vanguard 3 - Pass Details

Date: 22 January 2021
Orbit: 508 x 3261 km, 33.3° (Epoch: 28 February)

Event Time Altitude Azimuth Distance (km) Brightness Sun altitude
Rises 08:45:01 0° 264° (W) 5,121 10.8 7.4°
Reaches altitude 10° 08:48:29 10° 254° (WSW) 4,493 10.7 7.8°
Maximum altitude 08:59:22 31° 200° (SSW) 3,972 11.1 9.1°
Drops below altitude 10° 09:14:12 10° 148° (SSE) 6,123 14.0 10.7°
Sets 09:20:05 0° 140° (SE) 7,220 14.2 11.4°
